sat.trackr.live / text

‹ back to catalog

YAOGAN-30 06A

NORAD 44449 · 2019-045A

PAYLOAD ACTIVE UNKNOWN

§ Identity

Operator
Country
PRC
Launch date
2019-07-26
Launch site
XICLF
Launch vehicle
Mass (kg)
RCS (m²)

External: N2YO · Heavens-Above · Gunter

§ Orbital elements

Epoch: 2026-05-25T04:25:45.864768Z

Period
95.84 min
Inclination
34.9925°
Eccentricity
0.0002708
Mean motion
15.02519115 rev/d
Perigee alt
557.3 km
Apogee alt
561.0 km
Semi-major
6,937.3 km
B*
1.6012e-4
RAAN
110.2803°
Arg perigee
74.3052°
Mean anomaly
285.7955°
Rev number
37,315

§ Raw data

YAOGAN-30 06A1 44449U 19045A   26145.18455862  .00002142  00000+0  16012-3 0  99922 44449  34.9925 110.2803 0002708  74.3052 285.7955 15.02519115373152

JSON: /api/v1/satellites/44449 · /tle

For live sub-satellite position, see the globe view (requires WebGL).

§ Visibility from observer

Set your observer location to see the next 7 days of passes ≥ 10°. The values pass through the URL so the page stays shareable.

No JS? Fill the form by hand. The geolocation button needs JavaScript.